WA3JKB Weather Reports


time (UTC)temp
C
wind
direction
speed
KPH
gust
KPH
rain 1hr
cm
rain 24hr
cm
rain mn
cm
humidity
%
barometer
mb
20260505093517 15 0.0 1.6 0.00 0.00 0.00 76 1011.4
20260505092516 15 293 1.6 4.8 0.00 0.00 0.00 75 1011.4
20260505091516 15 293 1.6 6.4 0.00 0.00 0.00 75 1011.4
20260505090516 15 293 1.6 4.8 0.00 0.00 0.00 75 1011.4
20260505085516 15 293 1.6 6.4 0.00 0.00 0.00 75 1011.3
20260505084516 15 293 1.6 3.2 0.00 0.00 0.00 75 1011.2
20260505083516 15 293 1.6 4.8 0.00 0.00 0.00 75 1011.1
20260505082516 15 0.0 3.2 0.00 0.00 0.00 75 1011.3
20260505081516 15 0.0 1.6 0.00 0.00 0.00 74 1011.3
20260505080516 15 0.0 3.2 0.00 0.00 0.00 74 1011.3
20260505075516 15 0.0 1.6 0.00 0.00 0.00 73 1011.3
20260505074516 15 293 1.6 4.8 0.00 0.00 0.00 72 1011.2
20260505073516 15 0.0 1.6 0.00 0.00 0.00 71 1011.2
20260505072516 15 293 1.6 6.4 0.00 0.00 0.00 71 1011.2
20260505071516 15 0.0 1.6 0.00 0.00 0.00 71 1011.3
20260505070516 15 0.0 1.6 0.00 0.00 0.00 70 1011.3
20260505065516 15 293 1.6 4.8 0.00 0.00 0.00 69 1011.3
20260505064516 15 0.0 1.6 0.00 0.00 0.00 69 1011.3
20260505063516 15 0.0 3.2 0.00 0.00 0.00 68 1011.3
20260505062516 15 0.0 3.2 0.00 0.00 0.00 68 1011.3
20260505061516 15 0.0 3.2 0.00 0.00 0.00 67 1011.4
20260505060515 15 293 1.6 3.2 0.00 0.00 0.00 67 1011.3
20260505055516 15 0.0 3.2 0.00 0.00 0.00 67 1011.4
20260505054516 15 0.0 3.2 0.00 0.00 0.00 66 1011.4
20260505053516 15 255 0.0 0.0 0.00 0.00 0.00 65 1011.4
20260505052517 15 0.0 3.2 0.00 0.00 0.00 64 1011.5
20260505051515 15 0.0 3.2 0.00 0.00 0.00 63 1011.4
20260505050516 15 315 1.6 4.8 0.00 0.00 0.00 63 1011.4
20260505041516 16 293 1.6 6.4 0.00 0.00 0.00 57 1011.3
20260505040515 16 293 3.2 8.0 0.00 0.00 0.00 56 1011.2
20260505035516 17 293 1.6 6.4 0.00 0.00 0.00 55 1011.0
20260505034516 17 293 3.2 8.0 0.00 0.00 0.00 54 1011.0
20260505033516 17 293 1.6 6.4 0.00 0.00 0.00 53 1011.1
20260505032516 17 293 1.6 14.5 0.00 0.00 0.00 53 1011.3
20260505031516 17 293 1.6 6.4 0.00 0.00 0.00 52 1011.3
20260505030515 17 293 1.6 4.8 0.00 0.00 0.00 52 1011.3
20260505025515 17 180 1.6 6.4 0.00 0.00 0.00 51 1011.1
20260505024515 17 293 3.2 9.7 0.00 0.00 0.00 52 1011.1
20260505023515 17 293 1.6 4.8 0.00 0.00 0.00 52 1011.2
20260505022516 17 0.0 3.2 0.00 0.00 0.00 51 1011.3
20260505021516 17 0.0 4.8 0.00 0.00 0.00 50 1011.4
20260505020515 17 293 1.6 3.2 0.00 0.00 0.00 51 1011.4
20260505015515 17 0.0 3.2 0.00 0.00 0.00 51 1011.4
20260505014515 17 0.0 3.2 0.00 0.00 0.00 50 1011.3
20260505013517 17 0.0 8.0 0.00 0.00 0.00 50 1011.2
20260505012515 17 135 1.6 4.8 0.00 0.00 0.00 51 1011.2
20260505011521 17 0.0 3.2 0.00 0.00 0.00 51 1011.1
20260505010520 17 0.0 1.6 0.00 0.00 0.00 52 1011.0
20260505005515 17 0.0 1.6 0.00 0.00 0.00 52 1010.9
20260505004515 17 0.0 1.6 0.00 0.00 0.00 52 1010.8
20260505003515 18 0.0 1.6 0.00 0.00 0.00 50 1010.7
20260505002515 18 249 0.0 0.0 0.00 0.00 0.00 48 1010.7
20260505001516 18 0.0 1.6 0.00 0.00 0.00 46 1010.6
20260505000515 19 0.0 1.6 0.00 0.00 0.00 44 1010.5
20260504235517 20 0.0 4.8 0.00 0.00 0.00 43 1010.4
20260504234518 20 293 1.6 6.4 0.00 0.00 0.00 42 1010.4
20260504233517 20 270 1.6 8.0 0.00 0.00 0.00 42 1010.4
20260504232517 21 248 3.2 8.0 0.00 0.00 0.00 41 1010.4
20260504231517 21 248 1.6 6.4 0.00 0.00 0.00 40 1010.4
20260504230517 21 248 3.2 9.7 0.00 0.00 0.00 39 1010.3
20260504225517 22 225 1.6 9.7 0.00 0.00 0.00 38 1010.4
20260504224517 22 248 3.2 9.7 0.00 0.00 0.00 38 1010.5
20260504223517 22 248 4.8 17.7 0.00 0.00 0.00 36 1010.4
20260504222518 22 270 6.4 17.7 0.00 0.00 0.00 37 1010.5
20260504221517 22 293 1.6 11.3 0.00 0.00 0.00 36 1010.5
20260504220518 22 248 3.2 9.7 0.00 0.00 0.00 37 1010.4
20260504215517 22 270 6.4 17.7 0.00 0.00 0.00 37 1010.5
20260504214517 22 293 6.4 22.5 0.00 0.00 0.00 37 1010.6
20260504213517 22 248 4.8 14.5 0.00 0.00 0.00 36 1010.6
20260504212519 22 293 3.2 9.7 0.00 0.00 0.00 37 1010.6
20260504211517 22 270 4.8 11.3 0.00 0.00 0.00 38 1010.6
20260504210517 22 293 4.8 16.1 0.00 0.00 0.00 37 1010.7
20260504205517 22 270 3.2 6.4 0.00 0.00 0.00 39 1010.7
20260504204518 22 270 3.2 11.3 0.00 0.00 0.00 39 1010.7
20260504203517 22 248 6.4 19.3 0.00 0.00 0.00 37 1010.7
20260504202517 22 293 4.8 19.3 0.00 0.00 0.00 38 1010.8
20260504201517 22 293 3.2 9.7 0.00 0.00 0.00 41 1011.0
20260504200517 21 270 6.4 14.5 0.00 0.00 0.00 39 1011.1
20260504195517 21 270 4.8 14.5 0.00 0.00 0.00 39 1011.2
20260504194517 22 270 3.2 11.3 0.00 0.00 0.00 38 1011.2
20260504193517 21 315 4.8 16.1 0.00 0.00 0.00 39 1011.4
20260504192517 21 248 4.8 12.9 0.00 0.00 0.00 39 1011.5
20260504191516 21 248 6.4 22.5 0.00 0.00 0.00 40 1011.5
20260504190517 21 270 4.8 14.5 0.00 0.00 0.00 41 1011.7
20260504185517 21 203 4.8 9.7 0.00 0.00 0.00 38 1011.8
20260504184517 21 225 4.8 14.5 0.00 0.00 0.00 40 1011.8
20260504183516 21 248 4.8 14.5 0.00 0.00 0.00 38 1012.1
20260504182517 20 270 3.2 9.7 0.00 0.00 0.00 40 1012.1
20260504181516 20 293 4.8 24.1 0.00 0.00 0.00 39 1012.3
20260504180517 20 270 3.2 11.3 0.00 0.00 0.00 40 1012.4
20260504175517 20 270 3.2 14.5 0.00 0.00 0.00 39 1012.5
20260504174517 20 180 4.8 11.3 0.00 0.00 0.00 39 1012.8
20260504173518 20 248 4.8 16.1 0.00 0.00 0.00 38 1012.8
20260504172517 20 270 6.4 17.7 0.00 0.00 0.00 41 1013.1
20260504171517 20 203 4.8 12.9 0.00 0.00 0.00 38 1013.2
20260504170517 20 248 8.0 19.3 0.00 0.00 0.00 38 1013.3
20260504150517 17 248 4.8 14.5 0.00 0.00 0.00 48 1014.5
20260504140516 15 248 1.6 11.3 0.00 0.00 0.00 58 1014.7
20260504130516 12 293 3.2 8.0 0.00 0.00 0.00 72 1015.2
20260504110516 7 0.0 3.2 0.00 0.00 0.00 75 1015.5
20260504100517 7 0.0 4.8 0.00 0.00 0.00 72 1015.7